SCP
0 0 0 0 0 0 0 0 0 0 0 0 0 0 0 0 0 0 0 0 0 0 0 0 0 0 0 0 0 0 0 0 0 0 0 0 0 0 0 0 0 0 0 0
0 0 0 0 0 0 0 0 0 0 0 0 0 0 0 0 0 0 0 0 0 0 0 0 0 0 0 0 0 0 0 0 0 0 0 0 0 0 0 0 0 0 0 0
0 0 0 0 0 0 0 0 0 0 0 0 0 0 0 0 0 0 0 0 0 0 0 0 0 0 0 0 0 0 0 0 0 0 0 0 0 0 0 0 0 0 0 0
0 0 0 0 0 0 0 0 0 0 0 0 0 0 0 0 0 0 0 0 0 0 0 0 0 0 0 0 0 0 0 0 0 0 0 0 0 0 0 0 0 0 -0 -0
0 0 0 0 0 0 0 0 0 0 0 0 0 0 0 0 0 0 0 0 0 0 0 0 0 0 0 0 0 0 0 0 0 0 0 0 0 0 0 0 0 0 -0 -0
0 0 0 0 0 0 0 0 0 0 0 0 0 0 0 0 0 0 0 0 0 0 0 0 0 0 0 0 0 0 0 0 0 0 0 0 0 0 0 0 0 0 -0 -0
0 0 0 0 0 0 0 0 0 0 0 0 0 0 0 0 0 0 0 0 0 0 0 0 0 0 0 0 0 0 0 0 0 0 0 0 0 0 0 0 0 0 0 0
0 0 0 0 0 0 0 0 0 0 0 0 0 0 0 0 0 0 0 0 0 0 0 0 0 0 0 0 0 0 0 0 0 0 0 0 0 0 0 0 0 0 0 0
0 0 0 0 0 0 0 0 0 0 0 0 0 0 0 0 0 0 0 0 0 0 0 0 0 0 0 0 0 0 0 0 0 0 0 0 0 0 0 0 0 0 0 0
0 0 0 0 0 0 0 0 0 0 0 0 0 0 0 0 0 0 0 0 0 0 0 0 0 0 0 0 0 0 0 0 0 0 0 0 0 0 0 0 0 0 0 0
0 0 0 0 0 0 0 0 0 0 0 0 0 0 0 0 0 0 0 0 0 0 0 0 0 0 0 0 0 0 0 0 0 0 0 0 0 0 0 0 0 0 0 0
0 0 0 0 0 0 0 0 0 0 0 0 0 0 0 0 0 0 0 0 0 0 0 0 0 0 0 0 0 0 0 0 0 0 0 0 0 0 0 0 0 0 0 0
0 0 0 0 0 0 0 0 0 0 0 0 0 0 0 0 0 0 0 0 0 0 0 0 0 0 0 0 0 0 0 0 0 0 0 0 0 0 0 0 0 0 0 0
0 0 0 0 0 0 0 0 0 0 0 0 0 0 0 0 0 0 0 0 0 0 0 0 0 0 0 0 0 0 0 0 0 0 0 0 0 0 0 0 0 0 0 0
0 0 0 0 0 0 0 0 0 0 0 0 0 0 0 0 0 0 0 0 0 0 0 0 0 0 0 0 0 0 0 0 0 0 0 0 0 0 0 0 0 0 0 0
0 0 0 0 0 0 0 0 0 0 0 0 0 0 0 0 0 0 0 0 0 0 0 0 0 0 0 0 0 0 0 0 0 0 0 0 0 0 0 0 0 0 0 0
0 0 0 0 0 0 0 0 0 0 0 0 0 0 0 0 0 0 0 0 0 0 0 0 0 0 0 0 0 0 0 0 0 0 0 0 0 0 0 0 0 0 0 0
0 0 0 0 0 0 0 0 0 0 0 0 0 0 0 0 0 0 0 0 0 0 0 0 0 0 0 0 0 0 0 0 0 0 0 0 0 0 0 0 0 0 0 0
0 0 0 0 0 0 0 0 0 0 0 0 0 0 0 0 0 0 0 0 0 0 0 0 0 0 0 0 0 0 0 0 0 0 0 0 0 0 0 0 0 0 0 0
0 0 0 0 0 0 0 0 0 0 0 0 0 0 0 0 0 0 0 0 0 0 0 0 0 0 0 0 0 0 0 0 0 0 0 0 0 0 0 0 0 0 0 0
0 0 0 0 0 0 0 0 0 0 0 0 0 0 0 0 0 0 0 0 0 0 0 0 0 0 0 0 0 0 0 0 0 0 0 0 0 0 0 0 0 0 0 0
0 0 0 0 0 0 0 0 0 0 0 0 0 0 0 0 0 0 0 0 0 0 0 0 0 0 0 0 0 0 0 0 0 0 0 0 0 0 0 0 0 0 0 0
0 0 0 0 0 0 0 0 0 0 0 0 0 0 0 0 0 0 0 0 0 0 0 0 0 0 0 0 0 0 0 0 0 0 0 0 0 0 0 0 0 0 0 0
0 0 0 0 0 0 0 0 0 0 0 0 0 0 0 0 0 0 0 0 0 0 0 0 0 0 0 0 0 0 0 0 0 0 0 0 0 0 0 0 0 0 0 0
0 0 0 0 0 0 0 0 0 0 0 0 0 0 0 0 0 0 0 0 0 0 0 0 0 0 0 0 0 0 0 0 0 0 0 0 0 0 0 0 0 0 0 0
0 0 0 0 0 0 0 0 0 0 0 0 0 0 0 0 0 0 0 0 0 0 0 0 0 0 0 0 0 0 0 0 0 0 0 0 0 0 0 0 0 0 0 0
0 0 0 0 0 0 -0 -0 -0 -0 0 0 0 0 0 0 0 0 0 0 0 0 0 0 0 0 0 0 0 0 0 0 0 0 0 0 0 0 0 0 0 0 0 0
Wind_Speed
5 5 3 4 4 6 6 8 9 9 9 12 9 8 7 5 5 4 4 5 6 6 5 4 4 4 4 3 2 2 2 2 2 3 2 2 3 3 3 3 3 3 4 4
3 2 2 4 5 6 6 5 7 5 10 11 6 3 4 5 6 7 6 6 6 6 6 5 5 5 4 4 3 2 2 3 2 2 2 2 3 3 3 3 3 3 4 4
3 4 2 5 7 6 5 7 8 9 11 5 4 6 7 8 8 8 8 7 7 7 7 7 6 6 5 4 3 3 3 3 2 2 2 3 3 3 3 3 3 3 3 3
1 2 4 9 4 4 5 7 8 8 7 5 7 5 4 5 8 8 7 7 7 6 6 5 4 4 4 3 3 3 2 2 2 2 3 3 2 3 3 3 2 3 3 4
3 2 6 10 5 4 4 7 6 8 7 3 2 2 3 4 6 7 7 6 6 6 5 5 5 5 5 3 2 2 2 3 3 2 2 2 3 3 3 2 3 3 3 3
4 3 5 9 5 1 2 6 6 5 5 4 6 3 6 4 4 5 5 5 5 5 5 5 4 5 6 4 3 2 3 3 2 2 2 2 3 3 2 2 3 3 3 3
4 4 9 9 4 2 2 8 4 4 5 8 8 7 4 4 4 5 5 5 6 6 5 4 5 6 5 3 3 3 2 1 1 1 1 2 2 2 2 2 3 3 4 4
5 3 9 4 2 5 7 4 3 3 5 7 6 2 3 5 6 7 6 6 7 7 5 3 5 6 5 3 3 1 1 1 1 1 1 1 1 2 2 2 3 3 3 4
9 8 6 3 5 6 3 4 4 4 4 6 5 5 5 5 6 6 7 6 6 7 6 3 3 5 5 3 2 3 2 1 1 2 2 2 2 2 2 2 2 2 3 3
4 8 7 7 6 5 4 5 5 5 4 6 6 6 6 6 6 6 6 6 6 7 6 4 3 3 3 2 3 4 3 1 1 1 2 2 2 2 2 2 2 2 2 3
5 8 8 7 5 4 4 5 5 4 4 6 7 7 7 7 8 7 6 5 6 7 7 5 4 3 2 2 4 4 3 2 1 1 1 2 2 1 1 1 1 1 1 2
8 8 5 9 8 5 5 7 6 5 4 4 7 8 7 8 7 7 7 7 6 6 6 5 5 3 2 3 5 5 3 2 1 1 1 1 2 3 3 3 6 6 5 3
9 7 6 9 8 6 6 8 7 6 7 6 5 7 8 7 6 7 8 8 8 8 7 6 5 4 2 3 5 5 4 2 1 1 1 1 1 1 2 4 6 7 9 9
6 4 6 7 8 9 7 7 5 5 5 5 5 6 7 6 7 9 9 9 8 8 7 6 6 4 2 4 5 5 4 4 3 1 1 1 1 1 1 2 3 4 6 9
7 7 9 9 8 7 5 3 3 3 3 3 4 7 8 9 9 9 8 8 9 8 7 7 6 4 3 5 5 5 4 2 2 2 2 2 2 2 2 3 2 3 3 6
8 7 6 7 8 7 5 4 5 6 5 5 5 7 7 8 8 8 8 10 11 10 8 7 6 4 4 6 6 4 3 7 5 3 2 2 2 3 2 3 3 3 4 4
5 6 6 7 8 8 7 7 8 7 6 6 7 7 8 9 9 8 7 7 8 8 7 7 6 5 5 6 6 4 3 4 7 4 3 2 2 2 2 2 2 3 3 4
7 9 8 8 8 8 8 7 6 6 6 6 7 9 10 12 12 10 9 9 8 6 5 5 6 6 6 6 5 4 4 3 3 3 2 2 2 2 2 2 2 2 2 3
7 7 7 7 7 6 6 5 5 5 5 6 9 9 9 9 10 10 10 10 11 9 6 6 11 8 6 6 7 4 5 4 3 3 2 3 3 2 2 1 1 1 2 2
6 6 7 7 5 4 4 3 2 3 4 7 8 8 8 8 10 11 10 8 6 5 7 8 7 6 5 6 8 4 5 5 4 3 3 2 2 2 1 1 1 1 1 1
7 8 8 7 6 5 3 2 2 3 4 6 8 10 10 9 10 10 9 6 4 5 7 11 7 5 5 6 8 5 5 4 4 3 3 2 2 1 1 1 1 1 1 1
6 6 7 6 5 5 4 2 1 3 4 4 6 8 10 10 9 7 6 5 7 10 6 5 5 7 8 8 4 5 4 4 3 3 3 2 2 1 1 0 0 0 1 1
5 5 5 5 4 4 3 2 2 2 4 5 7 9 10 9 8 8 6 4 5 12 7 5 8 12 12 6 4 4 4 4 3 3 3 2 2 2 1 1 1 1 1 1
5 5 5 4 3 2 2 2 2 2 2 3 4 6 8 7 4 3 5 11 13 12 6 8 12 12 10 4 4 4 4 3 3 3 3 2 2 2 2 1 1 1 1 2
5 4 4 3 2 2 1 1 2 2 3 2 3 4 4 5 6 6 6 8 13 12 6 9 13 11 6 4 4 4 4 3 4 3 3 2 2 2 2 2 2 2 2 2
4 3 3 3 2 2 1 1 1 1 2 3 2 3 3 4 5 6 6 7 9 10 7 4 5 7 5 4 4 4 3 3 3 2 3 3 3 2 2 2 2 1 1 2
4 3 3 3 2 2 2 2 3 3 3 4 4 3 4 5 5 6 6 6 6 5 5 4 4 4 4 4 4 3 3 3 3 3 3 3 2 2 2 2 2 1 1 2
Wind_Direction
237 247 237 235 216 181 187 189 192 229 230 250 247 233 230 220 202 190 196 197 197 199 203 204 209 214 214 227 225 206 206 243 268 284 297 310 320 324 329 340 341 336 345 346
294 288 251 257 252 210 214 207 217 241 258 250 247 218 215 209 193 196 203 204 201 198 195 200 206 207 209 222 218 196 211 241 269 293 304 310 314 323 330 333 336 345 347 342
276 303 1 278 245 216 219 212 193 217 242 246 219 218 214 207 198 202 204 200 196 195 197 201 202 197 201 211 199 195 221 247 267 279 291 297 311 327 325 321 331 338 336 339
224 16 251 249 255 217 227 247 219 229 246 226 221 223 221 198 194 204 201 196 195 192 191 193 188 184 183 174 177 196 226 255 268 271 279 295 311 310 308 308 312 314 322 327
137 212 282 295 283 195 203 269 232 222 244 229 157 83 311 218 194 199 195 189 187 181 173 166 170 166 148 152 159 181 232 257 266 261 273 291 300 298 297 304 309 303 302 322
140 173 241 255 268 217 138 283 264 206 211 169 130 144 250 219 177 177 167 160 157 148 137 145 157 144 139 152 159 210 237 252 265 257 261 276 284 290 292 289 291 304 311 315
171 210 258 256 277 119 156 250 273 202 191 172 184 201 210 155 150 152 147 146 141 135 137 152 149 139 142 152 198 228 230 249 319 303 273 275 293 300 304 310 319 323 321 322
153 188 255 270 142 183 226 262 263 222 196 190 207 192 158 155 151 146 140 137 138 132 132 133 142 143 147 181 218 184 138 104 351 339 334 352 344 337 339 343 342 337 338 336
189 214 240 250 231 251 251 261 256 237 226 187 183 188 176 167 160 156 150 146 141 136 130 122 138 148 157 196 168 136 116 90 11 10 7 8 16 358 359 5 1 343 346 338
252 269 270 271 261 263 245 247 262 246 223 185 191 187 178 169 166 160 155 152 144 136 135 141 148 148 163 156 138 126 118 98 54 41 15 13 22 24 24 5 355 348 346 333
265 281 305 298 272 277 286 281 275 263 226 203 186 187 182 176 174 170 160 153 148 147 148 153 146 142 144 139 132 124 116 98 69 50 29 13 16 17 11 10 51 16 329 319
241 249 243 272 286 290 287 282 267 251 246 222 194 190 181 180 176 167 160 152 148 148 148 148 141 135 128 130 134 130 120 106 89 68 44 31 18 10 17 30 35 42 38 29
243 265 251 265 284 280 269 271 267 243 226 220 207 187 176 174 169 160 157 157 159 158 153 147 140 135 134 133 130 130 133 130 107 87 67 47 40 36 3 3 19 27 26 26
255 277 280 275 279 285 279 277 271 253 233 209 190 173 164 159 157 162 168 167 156 147 145 144 139 141 145 135 130 128 128 120 116 103 87 68 56 45 42 30 13 360 5 17
264 247 251 273 284 286 287 281 265 255 233 206 176 169 166 166 170 172 163 149 142 141 145 144 141 148 143 132 128 127 125 120 109 97 84 75 66 60 55 48 36 11 2 6
279 276 269 275 280 285 285 263 244 242 222 203 187 180 173 164 156 150 149 151 151 156 157 151 152 157 144 133 127 123 126 125 117 104 87 75 67 67 59 53 45 33 21 5
282 286 286 290 284 278 265 249 239 232 216 203 192 169 150 142 141 147 152 153 150 149 152 153 155 149 141 138 134 131 124 122 117 104 95 92 85 78 71 65 56 42 23 22
258 261 262 264 268 271 272 264 245 225 212 202 168 158 158 160 163 161 154 141 131 128 144 153 150 141 137 137 134 131 126 121 118 116 108 99 95 87 79 69 53 40 13 18
300 293 290 282 275 267 267 265 244 218 194 169 167 170 170 166 158 153 149 148 150 156 172 168 154 142 140 148 140 129 128 124 116 109 106 103 90 78 77 73 57 36 19 15
326 321 319 315 313 296 281 277 239 190 176 165 160 155 154 156 153 151 150 156 167 164 160 158 146 141 144 150 141 130 132 131 129 123 114 109 106 93 78 72 62 39 24 12
340 337 336 333 328 322 304 275 185 172 168 163 163 164 160 155 153 150 149 153 170 151 153 156 147 145 145 147 140 132 133 134 135 136 135 133 128 118 101 80 60 36 8 346
337 337 335 336 336 333 331 331 134 141 144 149 149 146 146 148 149 144 148 156 160 158 149 147 148 159 159 148 136 139 140 140 142 144 148 153 153 155 160 164 212 304 313 311
327 326 328 332 331 326 342 10 62 125 144 152 154 156 156 155 156 153 157 162 156 162 153 157 165 166 159 146 142 146 148 151 155 159 164 167 171 175 183 201 228 262 290 302
325 327 329 331 343 356 360 0 38 87 119 134 148 152 148 143 143 152 143 158 164 162 158 167 171 169 159 143 147 150 155 159 162 165 167 170 176 183 192 203 228 258 276 294
317 320 325 333 335 315 297 36 71 85 98 110 125 137 143 148 152 155 149 155 162 158 155 173 175 170 156 147 154 158 164 171 172 171 174 177 187 194 202 212 227 248 269 282
306 307 301 290 275 261 237 183 161 158 142 138 136 135 131 127 132 140 146 154 161 160 158 161 163 160 152 157 162 167 171 175 181 180 181 185 191 195 203 217 237 245 261 277
298 295 296 299 287 251 216 197 190 191 180 167 160 157 146 140 140 145 146 147 151 153 154 157 159 161 161 164 167 172 174 176 179 181 183 185 187 194 202 211 221 238 261 279